[[{"header":{"parameterUnit":"m.s-1","parameterCategory":2,"la1":30.2991,"la2":30.254,"lo1":-89.0895,"lo2":-89.0444,"dy":0.0017,"dx":0.0017,"nx":28,"ny":28,"refTime":"2024-12-14T03:00:00:Z","depth":"0","parameterNumber":2,"parameterNumberName":"U-component_of_CURRENTS"},"data":[0,0,0,0,0,0,0,0,0,0,0,0,0,0,0,0,0,0,0,0,0,0,0,0,0,0,0,0,0,0,0,0,0,0,0,0,0,0,0,0,0,0,0,0,0,0,0,0,0,0,0,0,0,0,0,0,0,0,-0.2506,-0.2506,0,-0.2511,-0.2511,-0.251,-0.2474,-0.2473,-0.2473,-0.2472,-0.2417,-0.2417,-0.2416,0,0,0,0,0,0,0,0,0,0,0,0,0,-0.2451,-0.2452,-0.2506,-0.2506,-0.2507,-0.2511,-0.2511,-0.251,-0.2474,-0.2473,-0.2472,-0.2472,-0.2418,-0.2417,-0.2416,0,0,0,0,0,0,0,0,0,0,0,0,0,-0.2464,-0.2452,-0.2506,-0.2491,-0.249,-0.2511,-0.2511,-0.251,-0.2474,-0.2473,-0.2472,-0.2471,-0.2418,-0.2417,-0.2416,-0.2431,0,0,-0.2412,-0.2412,0,0,0,0,0,0,0,0,-0.2464,-0.2466,-0.2493,-0.2492,-0.2491,-0.2493,-0.2471,-0.2482,-0.2475,-0.2477,-0.2472,-0.2471,-0.244,-0.2437,-0.2437,-0.2428,-0.2426,-0.2412,-0.2411,-0.2411,-0.2411,0,0,0,0,0,0,0,-0.2463,-0.2466,-0.2505,-0.2494,-0.2493,-0.248,-0.248,-0.2473,-0.2461,-0.2477,-0.2475,-0.2481,-0.2439,-0.2438,-0.2435,-0.2425,-0.2412,-0.2411,-0.241,-0.241,-0.2427,-0.2428,0,0,0,0,0,0,-0.2471,-0.2465,-0.2505,-0.2505,-0.2478,-0.2482,-0.2482,-0.2491,-0.2463,-0.2459,-0.2482,-0.2479,-0.2441,-0.2437,-0.2433,-0.2454,-0.2411,-0.241,-0.2409,-0.2426,-0.2427,-0.2428,0,0,0,0,0,0,-0.247,-0.2474,-0.2504,-0.2487,-0.249,-0.2485,-0.2495,-0.2492,-0.2488,-0.2468,-0.2461,-0.2481,-0.244,-0.2435,-0.2432,-0.2451,-0.2409,-0.2408,-0.2424,-0.2426,-0.2428,-0.2493,0,0,0,0,0,0,-0.2468,-0.2474,-0.2478,-0.2488,-0.2492,-0.2524,-0.2496,-0.2493,-0.2495,-0.2492,-0.2465,-0.2459,-0.2438,-0.2434,-0.2431,-0.2449,-0.2407,-0.2423,-0.2425,-0.2427,-0.2489,-0.2497,-0.2503,0,0,0,0,0,-0.2466,-0.2481,-0.2478,-0.2483,-0.2499,-0.2525,-0.2526,-0.2515,-0.2496,-0.2505,-0.2485,-0.2459,-0.2445,-0.2434,-0.243,-0.2448,-0.2422,-0.2424,-0.2427,-0.2486,-0.2495,-0.2503,0,0,0,0,0,0,-0.2454,-0.2479,-0.2476,-0.2495,-0.2512,-0.252,-0.2525,-0.252,-0.2512,-0.2501,-0.2473,-0.2467,-0.2473,-0.2454,-0.2443,-0.246,-0.243,-0.2432,-0.2476,-0.2484,-0.2491,-0.2491,-0.2406,0,0,0,0,0,-0.2457,-0.2472,-0.2495,-0.2508,-0.2519,-0.2522,-0.2528,-0.2526,-0.2525,-0.2519,-0.2502,-0.2486,-0.2483,-0.2477,-0.2469,-0.2479,-0.2455,-0.2489,-0.2496,-0.2501,-0.25,-0.2485,-0.249,-0.2437,-0.2437,-0.2437,0,0,-0.2454,-0.247,-0.2476,-0.2506,-0.2513,-0.2541,-0.2521,-0.2538,-0.2556,-0.2515,-0.2523,-0.2509,-0.2491,-0.2503,-0.2504,-0.2487,-0.2506,-0.2505,-0.251,-0.2505,-0.2488,-0.2493,-0.2498,-0.2438,-0.2438,-0.2438,0,0,-0.2463,-0.2473,-0.2492,-0.2515,-0.254,-0.255,-0.2558,-0.2573,-0.2573,-0.2587,-0.2563,-0.2561,-0.2553,-0.2548,-0.2543,-0.2584,-0.2543,-0.2582,-0.2615,-0.2602,-0.2606,-0.2609,-0.2592,-0.2593,-0.2585,-0.2585,-0.2585,0,-0.2456,-0.2485,-0.2501,-0.2532,-0.255,-0.2558,-0.2587,-0.26,-0.261,-0.2613,-0.2596,-0.2589,-0.2576,-0.259,-0.2606,-0.2599,-0.258,-0.2585,-0.261,-0.2612,-0.2614,-0.2596,-0.2596,-0.2588,-0.2588,-0.2587,-0.2587,0,-0.2484,-0.251,-0.2526,-0.2567,-0.2592,-0.2617,-0.2648,-0.2664,-0.2661,-0.2667,-0.2676,-0.266,-0.2651,-0.2656,-0.2643,-0.2659,-0.2637,-0.262,-0.2588,-0.2624,-0.2602,-0.2601,-0.2593,-0.2592,-0.2591,-0.259,0,0,-0.2451,-0.253,-0.2531,-0.2557,-0.2611,-0.2632,-0.2676,-0.271,-0.2725,-0.2731,-0.2744,-0.2747,-0.2728,-0.2721,-0.2706,-0.2699,-0.2706,-0.267,-0.2668,-0.2651,-0.2671,-0.2599,-0.2591,-0.269,-0.269,-0.269,-0.2653,0,-0.246,-0.2521,-0.2561,-0.2611,-0.2643,-0.2679,-0.2718,-0.275,-0.2764,-0.2781,-0.2773,-0.2775,-0.2757,-0.2748,-0.2745,-0.2718,-0.2705,-0.2717,-0.264,-0.2638,-0.2568,-0.2588,-0.2506,-0.2461,-0.2651,-0.2651,-0.2651,0,-0.2464,-0.2506,-0.2559,-0.2633,-0.2649,-0.2681,-0.2731,-0.2768,-0.2806,-0.2816,-0.2822,-0.2812,-0.2818,-0.2786,-0.2757,-0.2764,-0.2722,-0.2695,-0.2692,-0.2598,-0.2564,-0.2454,-0.2451,-0.2444,-0.2649,-0.2649,-0.265,0,-0.2415,-0.2499,-0.2537,-0.2563,-0.265,-0.2673,-0.2713,-0.2765,-0.279,-0.2827,-0.2836,-0.2845,-0.2829,-0.2801,-0.275,-0.2754,-0.2701,-0.2697,-0.259,-0.2584,-0.2485,-0.2469,-0.2459,-0.2659,-0.2659,-0.2659,-0.2659,0,-0.2401,-0.2426,-0.2515,-0.2532,-0.2568,-0.2643,-0.2678,-0.272,-0.2777,-0.2796,-0.2836,-0.2835,-0.2828,-0.2798,-0.276,-0.2668,-0.2704,-0.2593,-0.2568,-0.2506,-0.2494,-0.2456,-0.2468,-0.2658,-0.2658,-0.2658,-0.2659,0,-0.2329,-0.2395,-0.2435,-0.2522,-0.2544,-0.2562,-0.2645,-0.2668,-0.2738,-0.2762,-0.2771,-0.2818,-0.2784,-0.2759,-0.2705,-0.2657,-0.2545,-0.2543,-0.2468,-0.2434,-0.2331,-0.2349,-0.2272,-0.2208,-0.2434,-0.2432,-0.243,0,-0.2297,-0.2312,-0.2393,-0.2405,-0.2437,-0.2485,-0.2513,-0.2617,-0.2647,-0.2736,-0.2734,-0.2735,-0.2695,-0.2611,-0.2545,-0.246,-0.2444,-0.2329,-0.232,-0.231,-0.2314,-0.2317,-0.2269,-0.2221,-0.2218,-0.2215,-0.2213,0,-0.2212,-0.224,-0.2266,-0.2298,-0.2327,-0.2367,-0.2422,-0.2446,-0.256,-0.2587,-0.2604,-0.2585,-0.2539,-0.2427,-0.2336,-0.2275,-0.228,-0.2269,-0.2279,-0.216,-0.2141,-0.2072,-0.227,-0.2189,-0.2192,-0.2193,-0.2195,-0.2196,-0.212,-0.2114,-0.2147,-0.2162,-0.2197,-0.2215,-0.2204,-0.228,-0.2304,-0.2325,-0.2412,-0.2365,-0.2336,-0.2201,-0.2146,-0.205,-0.2083,-0.2,-0.2028,-0.2036,-0.1957,-0.2098,-0.1976,-0.1977,-0.1978,-0.1979,-0.198,0,-0.1993,-0.1998,-0.2009,-0.2023,-0.2003,-0.2072,-0.2107,-0.2074,-0.2051,-0.2122,-0.2116,-0.2113,-0.2009,-0.2,-0.1926,-0.1847,-0.1806,-0.1812,-0.1817,-0.1782,-0.1918,-0.1892,-0.1722,-0.1722,-0.1722,-0.1722,-0.1722,-0.1722,-0.1925,-0.1882,-0.1892,-0.1814,-0.182,-0.175,-0.1736,-0.1713,-0.1733,-0.1711,-0.1752,-0.1826,-0.184,-0.1953,-0.1855,-0.1772,-0.173,-0.1671,-0.1688,-0.1826,-0.1847,-0.1867,-0.1846,-0.1669,-0.1669,-0.1495,-0.1494,-0.1493]},{"header":{"parameterUnit":"m.s-1","parameterCategory":2,"la1":30.2991,"la2":30.254,"lo1":-89.0895,"lo2":-89.0444,"dy":0.0017,"dx":0.0017,"nx":28,"ny":28,"refTime":"2024-12-14T03:00:00:Z","depth":"0","parameterNumber":3,"parameterNumberName":"V-component_of_CURRENTS"},"data":[0,0,0,0,0,0,0,0,0,0,0,0,0,0,0,0,0,0,0,0,0,0,0,0,0,0,0,0,0,0,0,0,0,0,0,0,0,0,0,0,0,0,0,0,0,0,0,0,0,0,0,0,0,0,0,0,0,0,-0.0287,-0.0286,0,-0.0209,-0.0208,-0.0207,-0.0155,-0.0154,-0.0154,-0.0154,-0.0048,-0.0045,-0.0043,0,0,0,0,0,0,0,0,0,0,0,0,0,-0.0342,-0.0342,-0.0287,-0.0286,-0.0285,-0.0209,-0.0208,-0.0207,-0.0155,-0.0154,-0.0154,-0.0154,-0.0049,-0.0045,-0.0042,0,0,0,0,0,0,0,0,0,0,0,0,0,-0.0296,-0.0342,-0.0287,-0.0251,-0.0247,-0.0209,-0.0208,-0.0206,-0.0155,-0.0154,-0.0154,-0.0153,-0.005,-0.0046,-0.0042,-0.0027,0,0,-0.003,-0.0029,0,0,0,0,0,0,0,0,-0.0299,-0.0294,-0.0257,-0.0253,-0.0249,-0.0192,-0.0188,-0.0145,-0.0155,-0.0189,-0.0154,-0.0153,-0.0094,-0.0087,-0.0072,-0.0022,-0.0017,-0.003,-0.0028,-0.0026,-0.0025,0,0,0,0,0,0,0,-0.0302,-0.0297,-0.0255,-0.0256,-0.0251,-0.0222,-0.0215,-0.018,-0.0144,-0.0186,-0.0182,-0.0175,-0.0091,-0.0076,-0.0069,-0.0016,-0.003,-0.0027,-0.0024,-0.0023,0.0065,0.0065,0,0,0,0,0,0,-0.0317,-0.03,-0.0258,-0.0253,-0.0274,-0.0221,-0.0214,-0.021,-0.0144,-0.0135,-0.0175,-0.0173,-0.0083,-0.0074,-0.0065,-0.0039,-0.0026,-0.0022,-0.002,0.0065,0.0065,0.0065,0,0,0,0,0,0,-0.0318,-0.0314,-0.0261,-0.0275,-0.0267,-0.0221,-0.0217,-0.0209,-0.0193,-0.0137,-0.0126,-0.0169,-0.0082,-0.0071,-0.0033,-0.0034,-0.0021,-0.0017,0.0065,0.0065,0.0065,0.0012,0,0,0,0,0,0,-0.032,-0.0315,-0.0319,-0.0277,-0.0266,-0.0246,-0.0217,-0.0207,-0.019,-0.0185,-0.0128,-0.0117,-0.0081,-0.0039,-0.0029,-0.0029,-0.0014,0.0065,0.0065,0.0065,0.0013,0.001,0.0007,0,0,0,0,0,-0.0322,-0.0334,-0.032,-0.0315,-0.0273,-0.0247,-0.0239,-0.0204,-0.019,-0.0188,-0.0144,-0.0119,-0.0032,-0.0036,-0.0024,-0.0023,0.0065,0.0065,0.0065,0.0015,0.0011,0.0007,0,0,0,0,0,0,-0.0361,-0.0329,-0.0312,-0.0313,-0.0285,-0.0238,-0.0235,-0.021,-0.0174,-0.0171,-0.0116,-0.0103,-0.0072,-0.004,-0.0046,0.0003,0.002,0.0022,-0.0022,-0.0026,-0.0029,-0.0046,-0.0011,0,0,0,0,0,-0.0373,-0.0372,-0.0333,-0.0334,-0.0323,-0.028,-0.0266,-0.0242,-0.0204,-0.0188,-0.0146,-0.0102,-0.0063,-0.004,-0.0003,0.0025,0.0064,0.0033,0.0029,0.0026,0.002,0.0081,0.0082,0.0065,0.0065,0.0065,0,0,-0.0388,-0.0371,-0.037,-0.0342,-0.0318,-0.031,-0.027,-0.0255,-0.0243,-0.0183,-0.0156,-0.0114,-0.0059,-0.0027,-0.0011,-0.0,0.0053,0.0026,0.0023,0.0019,0.0081,0.0083,0.0084,0.0065,0.0065,0.0065,0,0,-0.0425,-0.0404,-0.0418,-0.0397,-0.0367,-0.0337,-0.0336,-0.0292,-0.0267,-0.0236,-0.0189,-0.0146,-0.0091,-0.0046,-0.0018,-0.0017,0.0031,-0.0009,-0.0035,0.0024,0.0025,0.0028,0.0082,0.009,-0.0008,-0.0008,-0.0008,0,-0.0447,-0.0455,-0.0417,-0.0422,-0.041,-0.0355,-0.0362,-0.0328,-0.0276,-0.0252,-0.0237,-0.0142,-0.0098,-0.0047,-0.0048,-0.0024,0.0013,-0.0026,0.0019,0.0022,0.0025,0.0081,0.0089,-0.001,-0.001,-0.001,-0.0009,0,-0.049,-0.0494,-0.05,-0.0485,-0.0466,-0.0464,-0.0413,-0.0388,-0.0351,-0.0308,-0.0253,-0.0187,-0.0128,-0.0108,-0.0078,-0.0035,-0.0014,0.0005,0.0026,0.0024,0.0082,0.0093,-0.0014,-0.0013,-0.0012,-0.0012,0,0,-0.0544,-0.0535,-0.0535,-0.054,-0.05,-0.049,-0.0465,-0.0421,-0.0398,-0.034,-0.0301,-0.0232,-0.0188,-0.0153,-0.0102,-0.0054,0.0001,-0.0025,-0.002,0.0024,0.0128,0.0175,0.0191,0.0027,0.0028,0.0029,0.0161,0,-0.0589,-0.0623,-0.0594,-0.0612,-0.0623,-0.0561,-0.0541,-0.0489,-0.0431,-0.0377,-0.0294,-0.0243,-0.0205,-0.0177,-0.0122,-0.0024,0.0025,-0.0036,0.0128,0.0133,0.0172,0.0204,0.0246,0.037,0.0171,0.0173,0.0174,0,-0.0639,-0.0655,-0.069,-0.0677,-0.0674,-0.0669,-0.0617,-0.0589,-0.0493,-0.0445,-0.0369,-0.0298,-0.0209,-0.0185,-0.0022,-0.0064,0.0019,0.009,0.0097,0.0165,0.0199,0.0341,0.0396,0.0533,0.019,0.0189,0.0188,0,-0.0704,-0.0716,-0.0749,-0.0747,-0.0723,-0.0717,-0.0694,-0.0614,-0.0583,-0.0485,-0.0445,-0.0325,-0.0257,-0.0141,0.0013,-0.0005,0.0194,0.0195,0.0315,0.032,0.0401,0.041,0.0604,0.0297,0.0296,0.0296,0.0296,0,-0.0765,-0.0787,-0.0786,-0.0805,-0.083,-0.0784,-0.0778,-0.0729,-0.0649,-0.0602,-0.049,-0.0418,-0.0245,-0.0105,0.0015,0.0212,0.0205,0.032,0.0362,0.0384,0.039,0.0548,0.0584,0.0301,0.03,0.0299,0.0298,0,-0.083,-0.083,-0.0869,-0.0866,-0.0867,-0.0884,-0.0849,-0.0833,-0.0749,-0.0681,-0.0654,-0.0473,-0.0278,-0.0097,0.012,0.0227,0.049,0.046,0.0473,0.0514,0.0737,0.0766,0.0983,0.1058,0.0614,0.0616,0.0617,0,-0.0866,-0.0897,-0.0928,-0.0955,-0.0958,-0.097,-0.0972,-0.0898,-0.0867,-0.0705,-0.0672,-0.0468,-0.0295,0.0049,0.0278,0.0519,0.06,0.0678,0.0649,0.0771,0.0835,0.0851,0.0898,0.0741,0.0744,0.0746,0.0747,0,-0.0931,-0.0942,-0.0974,-0.1039,-0.1062,-0.1076,-0.1065,-0.1054,-0.0942,-0.0846,-0.0672,-0.0517,-0.0162,0.016,0.047,0.0608,0.0783,0.0727,0.0864,0.0961,0.0983,0.1068,0.0625,0.0766,0.0764,0.0763,0.0762,0.0761,-0.0968,-0.1012,-0.1058,-0.1113,-0.1144,-0.1161,-0.116,-0.111,-0.1032,-0.0851,-0.0688,-0.0408,0.0044,0.0507,0.0666,0.1011,0.0953,0.1104,0.1134,0.1142,0.1207,0.0799,0.0975,0.0975,0.0974,0.0974,0.0973,0,-0.101,-0.1057,-0.1124,-0.1181,-0.1223,-0.1217,-0.1199,-0.1153,-0.1048,-0.0838,-0.0626,-0.0084,0.0357,0.0746,0.1234,0.141,0.1431,0.1494,0.1534,0.1565,0.1232,0.123,0.1458,0.1457,0.1457,0.1457,0.1457,0.1457,-0.1031,-0.1106,-0.1144,-0.1227,-0.1263,-0.1276,-0.1258,-0.1154,-0.1,-0.0641,-0.031,-0.0036,0.0532,0.1316,0.1759,0.1791,0.1919,0.1907,0.1971,0.1745,0.171,0.1677,0.1688,0.2008,0.2008,0.2303,0.2306,0.2309]}],[{"header":{"parameterUnit":"m.s-1","parameterCategory":2,"la1":30.2991,"la2":30.254,"lo1":-89.0895,"lo2":-89.0444,"dy":0.0017,"dx":0.0017,"nx":28,"ny":28,"refTime":"2024-12-14T03:00:00:Z","depth":"2","parameterNumber":2,"parameterNumberName":"U-component_of_CURRENTS"},"data":[0,0,0,0,0,0,0,0,0,0,0,0,0,0,0,0,0,0,0,0,0,0,0,0,0,0,0,0,0,0,0,0,0,0,0,0,0,0,0,0,0,0,0,0,0,0,0,0,0,0,0,0,0,0,0,0,0,0,-0.2285,-0.2286,0,-0.2293,-0.2293,-0.2292,-0.2265,-0.2265,-0.2264,-0.2264,-0.222,-0.2219,-0.2218,0,0,0,0,0,0,0,0,0,0,0,0,0,-0.2233,-0.2233,-0.2285,-0.2286,-0.2286,-0.2293,-0.2293,-0.2292,-0.2265,-0.2265,-0.2264,-0.2263,-0.222,-0.2219,-0.2218,0,0,0,0,0,0,0,0,0,0,0,0,0,-0.2246,-0.2234,-0.2285,-0.2276,-0.2275,-0.2293,-0.2293,-0.2292,-0.2265,-0.2265,-0.2264,-0.2263,-0.222,-0.2219,-0.2218,-0.2228,0,0,-0.2215,-0.2215,0,0,0,0,0,0,0,0,-0.2246,-0.2248,-0.2277,-0.2276,-0.2276,-0.228,-0.2258,-0.2269,-0.2266,-0.2266,-0.2264,-0.2263,-0.2238,-0.2235,-0.2235,-0.2226,-0.2224,-0.2215,-0.2214,-0.2214,-0.2214,0,0,0,0,0,0,0,-0.2245,-0.2247,-0.2285,-0.2277,-0.2277,-0.2266,-0.2267,-0.226,-0.2253,-0.2266,-0.2265,-0.2271,-0.2236,-0.2236,-0.2233,-0.2223,-0.2215,-0.2214,-0.2213,-0.2213,-0.2231,-0.2232,0,0,0,0,0,0,-0.2252,-0.2247,-0.2285,-0.2286,-0.2262,-0.2268,-0.2269,-0.2277,-0.2254,-0.2251,-0.2271,-0.2269,-0.2238,-0.2235,-0.2232,-0.2257,-0.2214,-0.2213,-0.2212,-0.223,-0.2232,-0.2233,0,0,0,0,0,0,-0.2251,-0.2255,-0.2285,-0.2268,-0.2272,-0.227,-0.2279,-0.2278,-0.2278,-0.2259,-0.2254,-0.2274,-0.2237,-0.2233,-0.2234,-0.2254,-0.2213,-0.2212,-0.2229,-0.2231,-0.2232,-0.2297,0,0,0,0,0,0,-0.2249,-0.2255,-0.226,-0.2269,-0.2273,-0.2304,-0.228,-0.2278,-0.2284,-0.2282,-0.226,-0.2255,-0.2236,-0.2235,-0.2233,-0.2252,-0.2211,-0.2228,-0.223,-0.2232,-0.2294,-0.2301,-0.2307,0,0,0,0,0,-0.2247,-0.2261,-0.226,-0.2265,-0.2281,-0.2306,-0.2307,-0.23,-0.2286,-0.2295,-0.2279,-0.2256,-0.2246,-0.2236,-0.2232,-0.2251,-0.2227,-0.2229,-0.2232,-0.2291,-0.2299,-0.2307,0,0,0,0,0,0,-0.2238,-0.2261,-0.2259,-0.2278,-0.2295,-0.2302,-0.2309,-0.2306,-0.2301,-0.2294,-0.2269,-0.2264,-0.2273,-0.2255,-0.2244,-0.2263,-0.2233,-0.2235,-0.2279,-0.2287,-0.2294,-0.2294,-0.221,0,0,0,0,0,-0.2241,-0.2255,-0.2277,-0.229,-0.2301,-0.2305,-0.2312,-0.2313,-0.2313,-0.231,-0.2297,-0.2284,-0.2281,-0.2278,-0.2271,-0.2282,-0.2258,-0.2292,-0.2299,-0.2305,-0.2303,-0.229,-0.2295,-0.2241,-0.2241,-0.2241,0,0,-0.2239,-0.2254,-0.2261,-0.2289,-0.2297,-0.2323,-0.2307,-0.2325,-0.2343,-0.2306,-0.2318,-0.2306,-0.229,-0.2303,-0.2305,-0.2289,-0.231,-0.2308,-0.2313,-0.2308,-0.2293,-0.2298,-0.2303,-0.2243,-0.2242,-0.2242,0,0,-0.2249,-0.226,-0.2278,-0.23,-0.2325,-0.2334,-0.2344,-0.236,-0.2362,-0.2378,-0.2358,-0.2358,-0.2353,-0.2348,-0.2344,-0.2383,-0.2346,-0.2383,-0.2416,-0.2404,-0.2408,-0.2411,-0.2395,-0.2396,-0.2386,-0.2386,-0.2386,0,-0.2245,-0.2272,-0.2287,-0.2316,-0.2334,-0.2343,-0.2371,-0.2384,-0.2397,-0.2402,-0.2389,-0.2387,-0.2375,-0.2389,-0.2405,-0.2398,-0.2381,-0.2388,-0.2412,-0.2415,-0.2417,-0.2399,-0.2399,-0.239,-0.2389,-0.2389,-0.2389,0,-0.2271,-0.2297,-0.2312,-0.235,-0.2375,-0.24,-0.2429,-0.2447,-0.2449,-0.2455,-0.2468,-0.2454,-0.2449,-0.2454,-0.2442,-0.2459,-0.2439,-0.2422,-0.2391,-0.2426,-0.2405,-0.2404,-0.2395,-0.2393,-0.2392,-0.2392,0,0,-0.2243,-0.2315,-0.2318,-0.2342,-0.2394,-0.2414,-0.2457,-0.249,-0.2507,-0.2517,-0.2532,-0.2537,-0.2523,-0.2517,-0.2504,-0.2498,-0.2506,-0.2472,-0.247,-0.2454,-0.2476,-0.2406,-0.2398,-0.2493,-0.2493,-0.2493,-0.2457,0,-0.2253,-0.2309,-0.2346,-0.2394,-0.2424,-0.2459,-0.2497,-0.2529,-0.2546,-0.2565,-0.256,-0.2565,-0.255,-0.2546,-0.2543,-0.2517,-0.2506,-0.2517,-0.2445,-0.2442,-0.2375,-0.2396,-0.2221,-0.2169,-0.2456,-0.2455,-0.2455,0,-0.2258,-0.2296,-0.2347,-0.2415,-0.2431,-0.2463,-0.2512,-0.2549,-0.2588,-0.26,-0.261,-0.2604,-0.2611,-0.2583,-0.2556,-0.2563,-0.2525,-0.2499,-0.2496,-0.2405,-0.2371,-0.2178,-0.2156,-0.2454,-0.2454,-0.2454,-0.2454,0,-0.2214,-0.2292,-0.2328,-0.2353,-0.2434,-0.2459,-0.2497,-0.2549,-0.2574,-0.2615,-0.2626,-0.2636,-0.2625,-0.2599,-0.2551,-0.2555,-0.2504,-0.25,-0.2399,-0.2393,-0.2215,-0.2193,-0.2466,-0.2466,-0.2466,-0.2466,-0.2466,0,-0.2201,-0.2226,-0.231,-0.2327,-0.2363,-0.2434,-0.247,-0.2512,-0.2568,-0.2587,-0.263,-0.263,-0.2626,-0.2598,-0.256,-0.2473,-0.2508,-0.2402,-0.2378,-0.2234,-0.2215,-0.2437,-0.2434,-0.2465,-0.2465,-0.2465,-0.2466,0,-0.2136,-0.2198,-0.2236,-0.2319,-0.2341,-0.2361,-0.2442,-0.2464,-0.2535,-0.2559,-0.2571,-0.2617,-0.2584,-0.2562,-0.2511,-0.2464,-0.2402,-0.2354,-0.2186,-0.2142,-0.2301,-0.2302,-0.2254,-0.2251,-0.2249,-0.2247,-0.2245,0,-0.2107,-0.2121,-0.22,-0.2211,-0.2243,-0.2292,-0.2319,-0.2419,-0.2447,-0.2534,-0.253,-0.2537,-0.2496,-0.2415,-0.234,-0.2256,-0.2317,-0.2048,-0.2026,-0.2297,-0.2279,-0.2284,-0.2288,-0.1818,-0.1813,-0.1809,-0.1806,0,-0.2028,-0.2056,-0.208,-0.2112,-0.2141,-0.2177,-0.223,-0.225,-0.2358,-0.2384,-0.2397,-0.2378,-0.2328,-0.2164,-0.2076,-0.2007,-0.2058,-0.1963,-0.227,-0.1907,-0.1885,-0.1868,-0.1886,-0.1769,-0.1773,-0.1776,-0.1778,-0.1779,-0.1944,-0.1938,-0.1969,-0.1984,-0.2017,-0.2028,-0.2013,-0.2079,-0.2096,-0.2095,-0.2186,-0.2093,-0.2079,-0.1847,-0.1755,-0.1689,-0.1829,-0.1741,-0.1754,-0.1771,-0.1735,-0.171,-0.1555,-0.1557,-0.1559,-0.1561,-0.1563,0,-0.1823,-0.1828,-0.1837,-0.1848,-0.1824,-0.1893,-0.1918,-0.1866,-0.1829,-0.1859,-0.1838,-0.1624,-0.1529,-0.152,-0.1367,-0.1346,-0.1335,-0.1285,-0.1269,-0.1306,-0.1338,-0.1281,-0.098,-0.0979,-0.0977,-0.0976,0,0,-0.1758,-0.1714,-0.172,-0.1638,-0.1645,-0.1567,-0.1546,-0.149,-0.147,-0.1359,-0.1312,-0.1424,-0.1461,-0.1212,-0.1166,-0.1048,-0.1162,-0.0993,-0.1458,-0.1475,-0.1505,-0.1597,-0.155,0,0,0,0,0]},{"header":{"parameterUnit":"m.s-1","parameterCategory":2,"la1":30.2991,"la2":30.254,"lo1":-89.0895,"lo2":-89.0444,"dy":0.0017,"dx":0.0017,"nx":28,"ny":28,"refTime":"2024-12-14T03:00:00:Z","depth":"2","parameterNumber":3,"parameterNumberName":"V-component_of_CURRENTS"},"data":[0,0,0,0,0,0,0,0,0,0,0,0,0,0,0,0,0,0,0,0,0,0,0,0,0,0,0,0,0,0,0,0,0,0,0,0,0,0,0,0,0,0,0,0,0,0,0,0,0,0,0,0,0,0,0,0,0,0,-0.0285,-0.0284,0,-0.0211,-0.021,-0.0209,-0.0161,-0.0161,-0.016,-0.016,-0.006,-0.0058,-0.0056,0,0,0,0,0,0,0,0,0,0,0,0,0,-0.0338,-0.0337,-0.0285,-0.0284,-0.0283,-0.0211,-0.021,-0.0209,-0.0161,-0.0161,-0.016,-0.016,-0.0061,-0.0058,-0.0055,0,0,0,0,0,0,0,0,0,0,0,0,0,-0.0294,-0.0337,-0.0285,-0.0251,-0.0248,-0.0211,-0.021,-0.0209,-0.0161,-0.0161,-0.016,-0.016,-0.0062,-0.0058,-0.0055,-0.0039,0,0,-0.0044,-0.0042,0,0,0,0,0,0,0,0,-0.0296,-0.0292,-0.0257,-0.0253,-0.0249,-0.0196,-0.0192,-0.0151,-0.0161,-0.0193,-0.016,-0.016,-0.0104,-0.0097,-0.0083,-0.0035,-0.003,-0.0043,-0.0041,-0.004,-0.0039,0,0,0,0,0,0,0,-0.0299,-0.0294,-0.0255,-0.0256,-0.0251,-0.0224,-0.0217,-0.0184,-0.015,-0.019,-0.0187,-0.018,-0.0101,-0.0087,-0.008,-0.0029,-0.0043,-0.004,-0.0038,-0.0037,0.0049,0.0049,0,0,0,0,0,0,-0.0313,-0.0298,-0.0257,-0.0253,-0.0273,-0.0223,-0.0216,-0.0213,-0.0151,-0.0142,-0.018,-0.0178,-0.0093,-0.0084,-0.0076,-0.0049,-0.004,-0.0036,-0.0034,0.0049,0.0049,0.0049,0,0,0,0,0,0,-0.0315,-0.031,-0.026,-0.0274,-0.0266,-0.0223,-0.0219,-0.0211,-0.0197,-0.0144,-0.0134,-0.0174,-0.0092,-0.0082,-0.0045,-0.0045,-0.0035,-0.0031,0.0049,0.0049,0.0049,0.0002,0,0,0,0,0,0,-0.0316,-0.0311,-0.0315,-0.0275,-0.0265,-0.0245,-0.0219,-0.021,-0.0194,-0.019,-0.0135,-0.0126,-0.0091,-0.0051,-0.0041,-0.004,-0.0028,0.0049,0.0049,0.0049,0.0004,0.0001,-0.0002,0,0,0,0,0,-0.0319,-0.0329,-0.0316,-0.0311,-0.0272,-0.0246,-0.0239,-0.0206,-0.0194,-0.0191,-0.015,-0.0127,-0.0043,-0.0048,-0.0037,-0.0034,0.0049,0.0049,0.0049,0.0005,0.0002,-0.0001,0,0,0,0,0,0,-0.0355,-0.0324,-0.0309,-0.0309,-0.0282,-0.0238,-0.0235,-0.0212,-0.0178,-0.0175,-0.0124,-0.0111,-0.0081,-0.0051,-0.0057,-0.0009,0.0005,0.0008,-0.0032,-0.0035,-0.0037,-0.0054,-0.0025,0,0,0,0,0,-0.0365,-0.0365,-0.0327,-0.0328,-0.0318,-0.0277,-0.0264,-0.0242,-0.0206,-0.0191,-0.0151,-0.0109,-0.0071,-0.0049,-0.0014,0.0014,0.005,0.0022,0.0019,0.0017,0.0011,0.0068,0.007,0.0049,0.0049,0.0049,0,0,-0.038,-0.0363,-0.0362,-0.0336,-0.0313,-0.0304,-0.0268,-0.0253,-0.0241,-0.0185,-0.0159,-0.0119,-0.0067,-0.0036,-0.0019,-0.001,0.0042,0.0017,0.0014,0.001,0.0069,0.0071,0.0072,0.005,0.005,0.005,0,0,-0.0413,-0.0394,-0.0405,-0.0386,-0.0358,-0.0329,-0.0328,-0.0286,-0.0262,-0.0232,-0.0188,-0.0146,-0.0094,-0.0051,-0.0023,-0.002,0.0023,-0.0013,-0.0035,0.002,0.0022,0.0025,0.0074,0.0082,-0.0011,-0.0011,-0.0011,0,-0.0433,-0.044,-0.0404,-0.0408,-0.0397,-0.0345,-0.0351,-0.0318,-0.0268,-0.0246,-0.0232,-0.0142,-0.0099,-0.0048,-0.0049,-0.0026,0.0008,-0.0028,0.0016,0.0019,0.0023,0.0073,0.0082,-0.0014,-0.0013,-0.0013,-0.0013,0,-0.0472,-0.0475,-0.048,-0.0465,-0.0447,-0.0444,-0.0395,-0.0371,-0.0336,-0.0296,-0.0243,-0.0179,-0.0123,-0.0103,-0.0075,-0.0032,-0.0015,0.0003,0.0022,0.0022,0.0075,0.0085,-0.0017,-0.0016,-0.0015,-0.0015,0,0,-0.0522,-0.0512,-0.0513,-0.0518,-0.0478,-0.0469,-0.0443,-0.0401,-0.038,-0.0322,-0.0286,-0.0217,-0.0176,-0.0143,-0.0094,-0.0048,0.0006,-0.0022,-0.0018,0.0023,0.0124,0.0163,0.0178,0.003,0.0031,0.0032,0.0153,0,-0.0564,-0.0595,-0.0566,-0.0582,-0.0592,-0.0533,-0.0513,-0.0464,-0.0409,-0.0358,-0.0277,-0.0229,-0.0191,-0.0165,-0.011,-0.002,0.0028,-0.0029,0.0123,0.0127,0.0158,0.0189,0.0147,0.0253,0.0163,0.0164,0.0165,0,-0.061,-0.0624,-0.0657,-0.0645,-0.0641,-0.0636,-0.0588,-0.0561,-0.0469,-0.0424,-0.0351,-0.0283,-0.0196,-0.0172,-0.0017,-0.0056,0.0022,0.0089,0.0096,0.0154,0.0184,0.024,0.0275,0.0182,0.0181,0.018,0.0178,0,-0.0674,-0.0683,-0.0715,-0.0712,-0.0688,-0.0684,-0.0662,-0.0587,-0.0558,-0.0465,-0.0428,-0.0311,-0.0246,-0.0134,0.0013,-0.0003,0.0183,0.0187,0.0296,0.0299,0.0305,0.0307,0.0285,0.0285,0.0284,0.0284,0.0284,0,-0.0732,-0.0753,-0.0751,-0.077,-0.0796,-0.075,-0.0747,-0.0701,-0.0625,-0.0585,-0.0473,-0.0407,-0.0237,-0.0104,0.0013,0.0197,0.0193,0.03,0.0339,0.0288,0.0287,0.0254,0.0249,0.0289,0.0288,0.0287,0.0286,0,-0.0796,-0.0795,-0.0833,-0.083,-0.0831,-0.085,-0.0818,-0.0805,-0.0726,-0.0666,-0.064,-0.0466,-0.0282,-0.0106,0.0102,0.0205,0.0367,0.0425,0.0354,0.0382,0.0441,0.0432,0.0561,0.0563,0.0565,0.0567,0.0568,0,-0.0832,-0.0862,-0.0892,-0.092,-0.0923,-0.0937,-0.094,-0.0871,-0.0843,-0.0695,-0.0667,-0.0474,-0.0316,0.0013,0.0225,0.0454,0.044,0.0535,0.0501,0.0448,0.0472,0.046,0.0448,0.049,0.0491,0.0491,0.0492,0,-0.0897,-0.0908,-0.094,-0.1005,-0.1029,-0.1045,-0.1037,-0.1029,-0.0926,-0.084,-0.0684,-0.0542,-0.0214,0.0051,0.0345,0.0466,0.0496,0.0555,0.0539,0.0424,0.0391,0.0411,0.0401,0.0497,0.0496,0.0496,0.0496,0.0495,-0.0936,-0.0979,-0.1025,-0.108,-0.1113,-0.1134,-0.1136,-0.1092,-0.1025,-0.0866,-0.0719,-0.0475,-0.0223,0.0208,0.0407,0.0586,0.0587,0.0613,0.0607,0.0602,0.0569,0.0542,0.067,0.067,0.0671,0.0671,0.0671,0,-0.098,-0.1026,-0.1092,-0.1151,-0.1196,-0.1191,-0.1179,-0.1137,-0.1048,-0.0871,-0.0685,-0.0384,-0.008,0.0178,0.0469,0.0643,0.061,0.0658,0.0572,0.0567,0.0562,0.0524,0.0615,0.0615,0.0615,0.0616,0,0,-0.1002,-0.1076,-0.1113,-0.12,-0.1239,-0.1257,-0.1243,-0.1148,-0.1014,-0.0818,-0.0628,-0.0381,-0.0065,0.0122,0.0339,0.0487,0.0477,0.0494,0.0522,0.0389,0.0382,0.0521,0.0455,0,0,0,0,0]}],[{"header":{"parameterUnit":"m.s-1","parameterCategory":2,"la1":30.2991,"la2":30.254,"lo1":-89.0895,"lo2":-89.0444,"dy":0.0017,"dx":0.0017,"nx":28,"ny":28,"refTime":"2024-12-14T03:00:00:Z","depth":"4","parameterNumber":2,"parameterNumberName":"U-component_of_CURRENTS"},"data":[0,0,0,0,0,0,0,0,0,0,0,0,0,0,0,0,0,0,0,0,0,0,0,0,0,0,0,0,0,0,0,0,0,0,0,0,0,0,0,0,0,0,0,0,0,0,0,0,0,0,0,0,0,0,0,0,0,0,-0.1571,-0.1572,0,-0.1625,-0.1626,-0.1626,-0.1661,-0.1661,-0.1661,-0.1662,-0.1699,-0.17,-0.17,0,0,0,0,0,0,0,0,0,0,0,0,0,-0.1488,-0.1489,-0.1571,-0.1572,-0.1573,-0.1625,-0.1626,-0.1626,-0.1661,-0.1661,-0.1662,-0.1662,-0.1699,-0.17,-0.17,0,0,0,0,0,0,0,0,0,0,0,0,0,-0.1529,-0.1489,-0.1571,-0.1598,-0.1601,-0.1625,-0.1626,-0.1627,-0.1661,-0.1661,-0.1662,-0.1662,-0.1699,-0.1699,-0.17,-0.1695,0,0,-0.1703,-0.1704,0,0,0,0,0,0,0,0,-0.1527,-0.1532,-0.1593,-0.1596,-0.1599,-0.1639,-0.161,-0.1649,-0.166,-0.1636,-0.1662,-0.1662,-0.1678,-0.1681,-0.1687,-0.1697,-0.1698,-0.1703,-0.1704,-0.1704,-0.1705,0,0,0,0,0,0,0,-0.1524,-0.153,-0.1591,-0.1594,-0.1598,-0.1604,-0.161,-0.1618,-0.1651,-0.1638,-0.1641,-0.165,-0.168,-0.1686,-0.1688,-0.1699,-0.1703,-0.1704,-0.1705,-0.1705,-0.1778,-0.1779,0,0,0,0,0,0,-0.1521,-0.1527,-0.1589,-0.1593,-0.1566,-0.1605,-0.1612,-0.1624,-0.1652,-0.1657,-0.1649,-0.1651,-0.1684,-0.1687,-0.169,-0.1756,-0.1704,-0.1705,-0.1706,-0.1776,-0.1778,-0.1779,0,0,0,0,0,0,-0.1519,-0.1526,-0.1587,-0.1562,-0.1571,-0.1606,-0.1619,-0.1625,-0.1659,-0.1661,-0.1666,-0.1681,-0.1685,-0.1688,-0.1724,-0.1755,-0.1706,-0.1707,-0.1775,-0.1777,-0.1779,-0.1842,0,0,0,0,0,0,-0.1517,-0.1525,-0.1545,-0.1562,-0.1572,-0.1622,-0.1619,-0.1625,-0.1663,-0.1666,-0.1689,-0.1691,-0.1685,-0.1723,-0.1725,-0.1755,-0.1707,-0.1773,-0.1776,-0.1778,-0.1838,-0.1846,-0.1853,0,0,0,0,0,-0.1513,-0.1535,-0.1545,-0.1553,-0.1594,-0.1624,-0.163,-0.1654,-0.1664,-0.1686,-0.1703,-0.1692,-0.174,-0.1725,-0.1727,-0.1758,-0.1772,-0.1775,-0.1778,-0.1835,-0.1845,-0.1853,0,0,0,0,0,0,-0.151,-0.1541,-0.1553,-0.1584,-0.1612,-0.1631,-0.1657,-0.167,-0.1701,-0.1712,-0.171,-0.1714,-0.1756,-0.1749,-0.1732,-0.1786,-0.1754,-0.1758,-0.1797,-0.1806,-0.1813,-0.1807,-0.1708,0,0,0,0,0,-0.1517,-0.1543,-0.157,-0.1598,-0.1615,-0.164,-0.166,-0.1679,-0.1702,-0.1718,-0.1734,-0.175,-0.1765,-0.178,-0.179,-0.1822,-0.1799,-0.1843,-0.185,-0.1856,-0.1853,-0.1846,-0.1851,-0.1789,-0.1789,-0.1789,0,0,-0.1524,-0.1545,-0.1561,-0.16,-0.1623,-0.1655,-0.1655,-0.1696,-0.1727,-0.1716,-0.177,-0.1778,-0.1779,-0.1815,-0.1833,-0.1817,-0.1864,-0.186,-0.1865,-0.1858,-0.1849,-0.1855,-0.186,-0.1791,-0.1791,-0.1791,0,0,-0.1541,-0.157,-0.1596,-0.1624,-0.1668,-0.1684,-0.1703,-0.1741,-0.1767,-0.1812,-0.1812,-0.1839,-0.1868,-0.1874,-0.1878,-0.193,-0.1901,-0.1941,-0.1975,-0.1969,-0.1973,-0.1977,-0.1961,-0.1963,-0.1946,-0.1946,-0.1946,0,-0.155,-0.1584,-0.1609,-0.1642,-0.167,-0.1701,-0.1736,-0.1766,-0.1813,-0.1834,-0.184,-0.1885,-0.1892,-0.1922,-0.1945,-0.1946,-0.1934,-0.1943,-0.1977,-0.198,-0.1983,-0.1966,-0.1967,-0.1949,-0.1949,-0.1949,-0.1948,0,-0.1577,-0.1618,-0.1638,-0.1688,-0.1722,-0.176,-0.1801,-0.1843,-0.1876,-0.1898,-0.1947,-0.1956,-0.1979,-0.1991,-0.1987,-0.2017,-0.1999,-0.1985,-0.1952,-0.1993,-0.1972,-0.1972,-0.1954,-0.1953,-0.1952,-0.1951,0,0,-0.1555,-0.164,-0.165,-0.1683,-0.1751,-0.1778,-0.1839,-0.1891,-0.1927,-0.1972,-0.2011,-0.2045,-0.2049,-0.2054,-0.2054,-0.2055,-0.2071,-0.2037,-0.2035,-0.2016,-0.2053,-0.1919,-0.1906,-0.2066,-0.2066,-0.2066,-0.2033,0,-0.1569,-0.1634,-0.1676,-0.1743,-0.1778,-0.1833,-0.1883,-0.1937,-0.1979,-0.2025,-0.2043,-0.2078,-0.2073,-0.209,-0.2093,-0.2078,-0.2074,-0.2081,-0.202,-0.2018,-0.189,-0.1902,-0.2067,-0.2032,-0.2032,-0.2032,-0.2032,0,-0.1571,-0.1617,-0.1685,-0.1771,-0.1792,-0.1842,-0.1921,-0.197,-0.2037,-0.2069,-0.2105,-0.2119,-0.2143,-0.2127,-0.2115,-0.2122,-0.2095,-0.2074,-0.2072,-0.192,-0.1883,-0.1982,-0.2032,-0.2032,-0.2032,-0.2032,-0.2032,0,-0.1523,-0.1619,-0.1674,-0.1705,-0.1806,-0.1853,-0.1909,-0.1985,-0.2023,-0.2096,-0.2122,-0.2153,-0.2164,-0.2148,-0.2113,-0.2122,-0.2078,-0.2079,-0.1929,-0.1919,-0.2023,-0.2019,-0.2057,-0.2057,-0.2057,-0.2057,-0.2057,0,-0.15,-0.1546,-0.1663,-0.169,-0.1754,-0.1838,-0.1906,-0.1964,-0.2042,-0.2068,-0.2138,-0.2141,-0.217,-0.2149,-0.212,-0.201,-0.2079,-0.1925,-0.1897,-0.2052,-0.2052,-0.2023,-0.202,-0.2056,-0.2056,-0.2057,-0.2057,0,-0.1427,-0.1509,-0.1575,-0.1694,-0.1733,-0.1778,-0.1893,-0.1927,-0.202,-0.2055,-0.2077,-0.2135,-0.2103,-0.2101,-0.2063,-0.1992,-0.192,-0.1863,-0.2023,-0.2006,-0.177,-0.1771,-0.1698,-0.1693,-0.1689,-0.1685,-0.1682,0,-0.1392,-0.1421,-0.1553,-0.1586,-0.1643,-0.1728,-0.1773,-0.1894,-0.1921,-0.2018,-0.2008,-0.203,-0.2043,-0.1872,-0.1901,-0.1824,-0.1798,-0.1756,-0.177,-0.1751,-0.1732,-0.1739,-0.1746,-0.1675,-0.1674,-0.1673,-0.1672,0,-0.1309,-0.1371,-0.1419,-0.1491,-0.1554,-0.1609,-0.1684,-0.169,-0.1806,-0.1917,-0.187,-0.1844,-0.1803,-0.1765,-0.1709,-0.166,-0.1785,-0.1711,-0.172,-0.1733,-0.1722,-0.1709,-0.1721,-0.1657,-0.1659,-0.166,-0.1661,0,-0.1239,-0.125,-0.1321,-0.1365,-0.1437,-0.1447,-0.1515,-0.1536,-0.1581,-0.1698,-0.1675,-0.1704,-0.1771,-0.1678,-0.163,-0.1567,-0.155,-0.1499,-0.1519,-0.1537,-0.1499,-0.1463,-0.1281,0,0,0,0,0,-0.1157,-0.1149,-0.1183,-0.1222,-0.1288,-0.1324,-0.1425,-0.1496,-0.1616,-0.153,-0.1597,-0.1552,-0.1492,-0.1515,-0.1413,-0.1561,-0.1557,-0.1438,-0.1511,-0.1573,-0.1591,-0.1561,0,0,0,0,0,0,-0.1099,-0.1124,-0.1132,-0.1086,-0.1081,-0.1133,-0.1187,-0.1276,-0.1241,-0.1369,-0.1336,-0.1444,-0.1401,-0.1504,-0.137,-0.1378,-0.1389,-0.1475,-0.147,-0.1563,-0.1579,-0.1593,-0.1569,0,0,0,0,0]},{"header":{"parameterUnit":"m.s-1","parameterCategory":2,"la1":30.2991,"la2":30.254,"lo1":-89.0895,"lo2":-89.0444,"dy":0.0017,"dx":0.0017,"nx":28,"ny":28,"refTime":"2024-12-14T03:00:00:Z","depth":"4","parameterNumber":3,"parameterNumberName":"V-component_of_CURRENTS"},"data":[0,0,0,0,0,0,0,0,0,0,0,0,0,0,0,0,0,0,0,0,0,0,0,0,0,0,0,0,0,0,0,0,0,0,0,0,0,0,0,0,0,0,0,0,0,0,0,0,0,0,0,0,0,0,0,0,0,0,-0.0201,-0.0201,0,-0.0153,-0.0153,-0.0152,-0.0123,-0.0123,-0.0123,-0.0123,-0.0049,-0.0048,-0.0046,0,0,0,0,0,0,0,0,0,0,0,0,0,-0.0231,-0.023,-0.0201,-0.0201,-0.02,-0.0154,-0.0153,-0.0152,-0.0123,-0.0123,-0.0123,-0.0123,-0.005,-0.0048,-0.0046,0,0,0,0,0,0,0,0,0,0,0,0,0,-0.0203,-0.023,-0.0201,-0.0181,-0.0178,-0.0154,-0.0153,-0.0152,-0.0123,-0.0123,-0.0123,-0.0123,-0.0051,-0.0048,-0.0045,-0.003,0,0,-0.0037,-0.0035,0,0,0,0,0,0,0,0,-0.0205,-0.0202,-0.0184,-0.0182,-0.018,-0.0145,-0.0136,-0.011,-0.0123,-0.0143,-0.0123,-0.0123,-0.008,-0.0074,-0.0065,-0.0026,-0.0023,-0.0036,-0.0035,-0.0033,-0.0033,0,0,0,0,0,0,0,-0.0207,-0.0204,-0.0181,-0.0184,-0.0181,-0.0161,-0.0158,-0.0131,-0.0112,-0.0142,-0.014,-0.0136,-0.0078,-0.0068,-0.0063,-0.0022,-0.0036,-0.0034,-0.0032,-0.0031,0.0039,0.0039,0,0,0,0,0,0,-0.0216,-0.0206,-0.0183,-0.018,-0.0193,-0.0161,-0.0157,-0.0155,-0.0112,-0.0106,-0.0136,-0.0134,-0.0073,-0.0066,-0.006,-0.0036,-0.0033,-0.0031,-0.0029,0.0039,0.0039,0.0039,0,0,0,0,0,0,-0.0217,-0.0215,-0.0185,-0.0192,-0.0187,-0.0161,-0.0159,-0.0155,-0.0147,-0.0108,-0.0101,-0.0134,-0.0072,-0.0064,-0.0036,-0.0034,-0.0029,-0.0027,0.0039,0.0039,0.0039,0.0009,0,0,0,0,0,0,-0.0218,-0.0216,-0.0221,-0.0193,-0.0187,-0.0175,-0.0159,-0.0154,-0.0145,-0.0143,-0.0104,-0.0097,-0.0071,-0.004,-0.0033,-0.003,-0.0025,0.0039,0.0039,0.0039,0.001,0.0008,0.0007,0,0,0,0,0,-0.022,-0.0227,-0.0221,-0.0219,-0.0194,-0.0176,-0.0171,-0.0151,-0.0145,-0.0144,-0.0115,-0.0099,-0.0033,-0.0038,-0.0029,-0.0025,0.0039,0.0039,0.0039,0.0011,0.0009,0.0007,0,0,0,0,0,0,-0.0243,-0.0224,-0.0217,-0.0219,-0.0202,-0.0171,-0.0171,-0.0156,-0.0132,-0.0132,-0.0095,-0.0085,-0.0061,-0.0039,-0.0045,-0.0004,0.0005,0.0007,-0.002,-0.0022,-0.0023,-0.0036,-0.0022,0,0,0,0,0,-0.0251,-0.0253,-0.0229,-0.0232,-0.0225,-0.0199,-0.0191,-0.0177,-0.0152,-0.0142,-0.0113,-0.0082,-0.0052,-0.0035,-0.0008,0.0016,0.0043,0.0024,0.0022,0.0021,0.0016,0.0063,0.0066,0.0041,0.0041,0.0041,0,0,-0.0262,-0.0252,-0.0253,-0.0237,-0.0223,-0.0217,-0.0194,-0.0186,-0.0177,-0.0137,-0.0119,-0.0088,-0.0048,-0.0021,-0.0008,-0.0002,0.0042,0.0021,0.002,0.0016,0.0064,0.0067,0.0069,0.0041,0.0041,0.0041,0,0,-0.0284,-0.0275,-0.0284,-0.0272,-0.0255,-0.0236,-0.0236,-0.0208,-0.0192,-0.017,-0.0138,-0.0104,-0.0064,-0.0029,-0.0006,0.0001,0.003,0.0005,-0.0009,0.0037,0.0039,0.0042,0.0077,0.0083,0.0007,0.0007,0.0007,0,-0.0299,-0.0306,-0.0284,-0.0287,-0.0282,-0.0248,-0.0253,-0.0229,-0.0194,-0.018,-0.017,-0.0099,-0.0065,-0.0022,-0.002,-0.0002,0.0022,-0.0006,0.0035,0.0038,0.0041,0.0077,0.0084,0.0005,0.0006,0.0006,0.0006,0,-0.0323,-0.033,-0.0334,-0.0327,-0.0316,-0.0316,-0.0282,-0.0266,-0.0244,-0.0215,-0.0173,-0.0121,-0.0078,-0.006,-0.0038,0.0001,0.001,0.0025,0.0037,0.0041,0.0079,0.0087,0.0003,0.0004,0.0004,0.0005,0,0,-0.0355,-0.0354,-0.0357,-0.0366,-0.034,-0.0336,-0.0316,-0.0288,-0.0277,-0.0231,-0.0206,-0.0145,-0.0115,-0.0088,-0.0048,-0.0007,0.0038,0.0011,0.0014,0.0042,0.0131,0.0116,0.0123,0.0058,0.0059,0.006,0.0148,0,-0.0384,-0.0411,-0.0393,-0.0411,-0.0422,-0.0384,-0.037,-0.0337,-0.0299,-0.0264,-0.0195,-0.016,-0.0125,-0.0106,-0.0056,0.0015,0.0057,0.0012,0.0126,0.0129,0.0113,0.0131,0.0064,0.0153,0.0155,0.0157,0.0158,0,-0.0414,-0.043,-0.0461,-0.0463,-0.0463,-0.0465,-0.044,-0.0421,-0.0355,-0.0323,-0.0264,-0.021,-0.0134,-0.0112,0.0018,-0.0015,0.0049,0.0105,0.011,0.0111,0.0129,0.0151,0.0172,0.0171,0.017,0.0169,0.0168,0,-0.0457,-0.0474,-0.0506,-0.0508,-0.0501,-0.0506,-0.0497,-0.0447,-0.0431,-0.0361,-0.0338,-0.0238,-0.0187,-0.009,0.003,0.0022,0.0168,0.0178,0.0227,0.0227,0.0226,0.0223,0.0261,0.0261,0.0261,0.0261,0.026,0,-0.0493,-0.0518,-0.0537,-0.0555,-0.059,-0.0562,-0.0576,-0.0545,-0.0495,-0.0473,-0.0378,-0.0332,-0.0181,-0.0076,0.0025,0.0152,0.0171,0.0226,0.0251,0.0211,0.0205,0.0232,0.0227,0.0264,0.0263,0.0263,0.0262,0,-0.0531,-0.0543,-0.0585,-0.0605,-0.0616,-0.0642,-0.0642,-0.0641,-0.0587,-0.0552,-0.0532,-0.0395,-0.0254,-0.0103,0.0069,0.0141,0.0265,0.0302,0.0246,0.0266,0.0292,0.0285,0.0364,0.0364,0.0364,0.0364,0.0364,0,-0.0551,-0.058,-0.0636,-0.0672,-0.0687,-0.0719,-0.0736,-0.0697,-0.0683,-0.0587,-0.0568,-0.0427,-0.0324,-0.0082,0.0068,0.0266,0.0286,0.0341,0.0317,0.0287,0.0304,0.0296,0.0289,0.0365,0.0365,0.0365,0.0365,0,-0.0588,-0.0615,-0.0652,-0.0732,-0.0773,-0.0806,-0.0821,-0.0818,-0.0754,-0.071,-0.0585,-0.0444,-0.028,-0.0086,0.0071,0.0208,0.0302,0.0344,0.0344,0.0322,0.029,0.0304,0.0297,0.0366,0.0366,0.0366,0.0366,0,-0.0614,-0.0654,-0.0712,-0.0775,-0.0836,-0.0869,-0.0873,-0.0836,-0.0807,-0.0689,-0.065,-0.0455,-0.0332,-0.0116,0.0028,0.0166,0.0192,0.0217,0.0225,0.0226,0.0156,0.0093,0.0133,0,0,0,0,0,-0.063,-0.0676,-0.0747,-0.0814,-0.0876,-0.0902,-0.0913,-0.0898,-0.0841,-0.0761,-0.0698,-0.0539,-0.0294,-0.0177,-0.0042,0.0012,0.0197,0.017,0.0225,0.037,0.0369,0.031,0,0,0,0,0,0,-0.0641,-0.0711,-0.0748,-0.0829,-0.0877,-0.093,-0.0937,-0.09,-0.0839,-0.0763,-0.0626,-0.0529,-0.0287,-0.037,-0.0045,-0.0001,0.0046,0.0297,0.0299,0.0371,0.037,0.0369,0.0308,0,0,0,0,0]}]]